Prox-1
1 44339U 19036A   25128.65141436  .00012264  00000-0  15758-2 0  9993
2 44339  23.9969 271.4220 0008004  67.5768 292.5576 14.79304281313374
SONATE
1 44400U 19038Q   25129.62091756  .00164057  00000-0  83511-3 0  9992
2 44400  97.6942 152.7158 0002964  37.5839 322.5635 15.80969827324668
Taurus 1
1 44530U 19059C   25129.80051668  .00007311  00000-0  13581-2 0  9995
2 44530  98.6029 267.7480 0010826 131.9936 228.2190 14.65454054299434
Duchifat 3
1 44854U 19089C   25129.54560112  .00040003  00000-0  85172-3 0  9998
2 44854  36.9433 192.1321 0000522  21.0446 339.0331 15.44002239298146
TO-108
1 44881U 19093C   25129.84577401  .00001121  00000-0  13581-3 0  9998
2 44881  97.7929 206.1379 0013122 338.2675  21.7982 14.85537718291517
FloripaSat 1
1 44885U 19093G   25129.82745833  .00005712  00000-0  48663-3 0  9995
2 44885  97.8147 217.3746 0009783 309.3045  50.7309 14.98131136292147
RS-44
1 44909U 19096E   25129.28218635 -.00000002  00000-0 -52879-4 0  9994
2 44909  82.5213 248.0696 0217485   9.0634 351.4294 12.79740409250685
UPMSat 2
1 46276U 20061E   25129.26088945  .00066717  00000-0  68565-3 0  9995
2 46276  97.2465 202.6839 0001339 157.1779 202.9540 15.64692062260565
SALSAT
1 46495U 20068K   25128.87215254  .00009058  00000-0  39601-3 0  9990
2 46495  97.8582 105.4509 0009472 273.3552  86.6599 15.22293424253706
CubeSX-Sirius-HSE
1 47951U 21022V   25129.86865235  .00315424  00000-0  14245-2 0  9992
2 47951  97.4168  41.5960 0008125  95.2040 265.0156 15.83146729228973
CubeSX-HSE
1 47952U 21022W   25129.81980746 -.00004634  00000-0 -20374-4 0  9995
2 47952  97.4125  41.7934 0007084  94.8658 265.3420 15.83747624228982
GRBAlpha
1 47959U 21022AD  25129.80435974  .00315297  00000-0  14736-2 0  9990
2 47959  97.4173  41.8750 0007638  93.0465 267.1678 15.82414331227801
TUBIN
1 48900U 21059X   25129.85434220  .00044979  00000-0  60328-3 0  9990
2 48900  97.6731 296.6530 0002372 347.1853  12.9341 15.57831808215253
LEDSAT
1 49069U 21073D   25129.74790018  .00061959  00000-0  86032-3 0  9998
2 49069  97.3908 210.0915 0011858 186.7977 173.3119 15.56744825206631
CUTE
1 49263U 21088D   25129.75026626  .00024633  00000-0  50799-3 0  9997
2 49263  97.4523 205.1369 0007551   3.4984 356.6317 15.45852420199666
TeikyoSat 4
1 49396U 21102B   25129.15632325  .00002058  00000-0  13940-3 0  9998
2 49396  97.4129 168.7175 0011041 236.3834 123.6341 15.07506222191816
Z-Sat
1 49399U 21102E   25129.89135805  .00004248  00000-0  23580-3 0  9997
2 49399  97.3828 172.3350 0017545 205.2628 154.7748 15.14140063192330
KOSEN 1
1 49402U 21102H   25129.07306517  .00008397  00000-0  39330-3 0  9991
2 49402  97.3737 174.7224 0016192 183.3155 176.7976 15.19843326192501
HO-113
1 50466U 21131B   25129.85730237  .00000626  00000-0  20942-3 0  9997
2 50466  98.5087 219.3637 0003521 212.6239 147.4733 14.40775926177028
IRIS-A
1 51044U 22002BN  25129.73240041  .00293967  00000-0  10523-2 0  9999
2 51044  97.3229 208.7852 0006478 234.4566 125.6103 15.88068786184980
Foresail-1
1 52766U 22057AL  25129.37188366  .00210279  00000-0  10197-2 0  9994
2 52766  97.6030 277.8115 0002696 291.2970  68.8010 15.81908836164943
SNUGLITE 2
1 52899U 22065F   25129.37480723  .00001578  00000-0  31608-3 0  9993
2 52899  98.1641 271.6614 0007188 201.9764 158.1131 14.63135493151921
IO-117
1 53106U 22080B   25051.21822557 -.00000003  00000-0  00000+0 0  9995
2 53106  70.1434 106.3440 0008542  48.0089 312.1297  6.42557744 61200
UmKA 1 (RS40S)
1 57172U 23091G   25129.83201929  .00007168  00000-0  38621-3 0  9995
2 57172  97.5606 185.3781 0016114  83.1855 277.1210 15.14999615102826
CubeBel-2 (EU11S)
1 57175U 23091K   25129.87339936  .00011176  00000-0  54028-3 0  9995
2 57175  97.5608 186.3855 0014064  91.7262 268.5583 15.18702218102892
VERONIKA
1 58261U 23174F   25129.85725495  .00112353  00000-0  12362-2 0  9994
2 58261  97.4143 214.3749 0006932 172.6551 187.4810 15.62760750 83873
ENSO
1 58470U 23185J   25129.86189323  .00054212  00000-0  87747-3 0  9992
2 58470  97.3760 204.0703 0008707 186.4597 173.6545 15.52605588 80268
EIRSAT-1
1 58472U 23185L   25129.87829735  .00096357  00000-0  11139-2 0  9990
2 58472  97.3725 205.5211 0007829 188.3237 171.7892 15.61527103 80368
SONATE-2
1 59112U 24043Q   25129.33942511  .00019875  00000-0  59123-3 0  9991
2 59112  97.5088 259.9245 0011023 220.3811 139.6614 15.34710789 65542
MO-122
1 60209U 24125G   25129.81642442  .00018005  00000-0  52900-3 0  9994
2 60209  97.2833 341.7987 0017704 244.9955 114.9450 15.35020635 47237
GRBBeta
1 60237U 24128C   25129.52312980  .00003367  00000-0  26251-3 0  9992
2 60237  61.9911 187.8183 0049338  50.4222 310.1210 15.02355088 45537
Curium One
1 60242U 24128H   25129.47568575  .00005879  00000-0  42010-3 0  9996
2 60242  61.9812 186.7127 0049289  45.9502 314.5633 15.04629440 45551
ROBUSTA-3A
1 60243U 24128J   25129.53555327  .00005856  00000-0  42386-3 0  9996
2 60243  61.9883 187.2304 0047819  43.8028 316.6841 15.04207869 45551
CatSat
1 60246U 24125J   25129.03755320  .00010650  00000-0  36268-3 0  9996
2 60246  97.2626 340.5923 0042627 204.3857 155.5368 15.29689987 45161
HYPERVIEW-1G (RS66S)
1 61772U 24199AP  25129.90440409  .00021821  00000-0  65773-3 0  9992
2 61772  97.3584 358.8477 0012051 306.4308  53.5823 15.34259768 72258
AO-123
1 61781U 24199AY  25129.86961977  .00007101  00000-0  26234-3 0  9999
2 61781  97.3596 358.0067 0014460 311.1097  48.8893 15.27943796 72192
ZIMSAT 2
1 61783U 24199BA  25129.85551989  .00036803  00000-0  96432-3 0  9996
2 61783  97.3567 359.2005 0011940 303.7733  56.2374 15.38528529 75422
HADES-R (SO-124)
1 62690U 25009CK  25128.19431594  .00033612  00000-0  12704-2 0  9994
2 62690  97.4100 209.1819 0004272 185.0416 175.0781 15.26897583 17209
HYDRA-T
1 62692U 25009CM  25128.70877028  .00035973  00000-0  13491-2 0  9995
2 62692  97.4102 209.7140 0004222 179.8993 180.2248 15.27140521 17280
JINJUSat 1B
1 63210U 25052A   25129.26567921  .00013863  00000-0  64711-3 0  9996
2 63210  97.4458  23.7963 0006397  78.4256 281.7697 15.19929328  8498
NUSHSAT 1
1 63211U 25052B   25129.26443434  .00015346  00000-0  71281-3 0  9997
2 63211  97.4450  23.7919 0006450  82.2282 277.9685 15.20075942  8494
TEVEL2-4
1 63213U 25052D   25129.14058320  .00013978  00000-0  65476-3 0  9990
2 63213  97.4365  23.5943 0005674  94.7276 265.4607 15.19809093  8478
TEVEL2-5
1 63214U 25052E   25128.67996001  .00012239  00000-0  57430-3 0  9995
2 63214  97.4366  23.1400 0005708  95.6933 264.4953 15.19782504  8405
TEVEL2-6
1 63215U 25052F   25128.94462967  .00012876  00000-0  60450-3 0  9998
2 63215  97.4367  23.3983 0005755  95.7974 264.3918 15.19749769  8443
TEVEL2-1
1 63217U 25052H   25129.28060032  .00013810  00000-0  65162-3 0  9999
2 63217  97.4342  23.6969 0005900 104.1518 256.0372 15.19558850  8492
TEVEL2-2
1 63218U 25052J   25129.14916246  .00013254  00000-0  62573-3 0  9997
2 63218  97.4344  23.5672 0005921 104.6480 255.5411 15.19550624  8478
TEVEL2-3
1 63219U 25052K   25129.14919579  .00013265  00000-0  62628-3 0  9993
2 63219  97.4343  23.5671 0005879 104.6180 255.5707 15.19547610  8475
TEVEL2-8
1 63237U 25052AD  25129.12416986  .00013754  00000-0  67104-3 0  9992
2 63237  97.4407  23.4920 0010101 118.2916 241.9338 15.18369258  8461
TEVEL2-9
1 63238U 25052AE  25129.25720705  .00014106  00000-0  68896-3 0  9995
2 63238  97.4407  23.6216 0010183 118.0504 242.1761 15.18325021  8488
TEVEL2-7
1 63239U 25052AF  25129.25844295  .00013935  00000-0  68136-3 0  9993
2 63239  97.4408  23.6193 0010173 118.3605 241.8656 15.18288839  8482
HYDRA-W
1 63490U 25052BL  25128.93017388  .00029743  00000-0  13154-2 0  9994
2 63490  97.4358  23.4121 0014598 118.6202 241.6504 15.21543683  8446
HADES-ICM
1 63492U 25052BN  25128.67410809  .00025873  00000-0  11571-2 0  9993
2 63492  97.4361  23.1458 0014846 122.8475 237.4192 15.21187102  8409
